Starlink 31772

operational
NORAD ID: 59430 Int'l Des: 2024-065 Owner: SPXS Country: US Constellation: starlink
LEOCIRCULAR

About Starlink 31772

Description loading...

Live Position

Loading 3D Globe...

Upcoming Passes

Altitude History

Altitude vs Time

uPlot chart will show altitude changes over time

Two-Line Element Set

1 59430U 24065K 25304.83160380 -.00002355 00000-0 -67403-4 0 9992
2 59430 53.1602 159.9938 0001208 90.5348 269.5791 15.30202876 89206
Epoch: Oct 31, 2025 • Age: 24 hours

Current Status

Altitude 478.2 km
Velocity 7.63 km/s
Sub-Earth Point 40.08°N, 142.67°W
Launch Date Apr 7, 2024
Age 1.5 years
Type internet

Technical Details

Classification Payload
Mass 730.00 kg
Dry Mass 700.00 kg
Total Mass 730.00 kg
Length 0.30 m
Diameter 4.10 m
Span 29.00 m
Shape Box + pan
Manufacturer SPXS
Bus Type Starlink V2M
Phase Status In Orbit
Owner/State SPXS/US

Large Constellations

Loading constellations...